Location: USNO
(38.9242°N, 77.0663°W)
Time: 20:40:05
(UTC-04:00)

ISS - Pass Details

Date: 13 October 2017
Orbit: 401 x 408 km, 51.6° (Epoch: 23 October)

Event Time Altitude Azimuth Distance (km) Brightness Sun altitude
Rises 20:18:13 0° 305° (NW) 2,325 1.1 -21.4°
Reaches altitude 10° 20:20:20 10° 300° (WNW) 1,464 -0.1 -21.8°
Enters shadow 20:23:10 50° 251° (WSW) 523 -3.0 -22.3°
